GW3957 Weather Reports


time (UTC)temp
C
wind
direction
speed
KPH
gust
KPH
rain 1hr
cm
rain 24hr
cm
rain mn
cm
humidity
%
barometer
mb
20260510033641 7 204 0.0 1.6 0.00 1.17 1.17 99 1006.9
20260510033139 7 209 0.0 0.0 0.00 1.17 1.17 99 1007.1
20260510032635 6 220 0.0 0.0 0.00 1.17 1.17 99 1007.1
20260510032130 6 202 0.0 1.6 0.00 1.17 1.17 99 1006.9
20260510031625 7 205 0.0 0.0 0.00 1.17 1.17 99 1006.8
20260510031122 7 196 0.0 0.0 0.00 1.17 1.17 99 1006.8
20260510030617 7 178 0.0 0.0 0.00 1.17 1.17 99 1006.9
20260510030115 7 208 0.0 0.0 0.00 1.17 1.17 99 1007.1
20260510025611 7 215 0.0 0.0 0.00 1.17 1.17 99 1007.1
20260510025109 7 221 0.0 0.0 0.00 1.17 1.17 99 1007.0
20260510024605 7 222 0.0 0.0 0.00 1.17 1.17 99 1007.0
20260510024056 7 203 0.0 0.0 0.00 1.17 1.17 99 1007.1
20260510023552 8 209 0.0 1.6 0.00 1.17 1.17 99 1007.0
20260510023051 7 152 1.6 3.2 0.00 1.17 1.17 99 1007.1
20260510022549 7 183 0.0 0.0 0.00 1.17 1.17 99 1006.9
20260510022043 7 203 0.0 0.0 0.00 1.17 1.17 99 1007.0
20260510021540 7 204 0.0 0.0 0.00 1.17 1.17 99 1007.1
20260510021038 7 224 0.0 0.0 0.00 1.17 1.17 99 1006.9
20260510020532 7 222 0.0 0.0 0.00 1.17 1.17 99 1006.9
20260510020028 8 205 0.0 0.0 0.00 1.17 1.17 99 1006.6
20260510015524 8 218 0.0 0.0 0.00 1.17 1.17 99 1006.6
20260510015020 8 181 3.2 4.8 0.00 1.17 1.17 99 1006.6
20260510014516 7 190 0.0 0.0 0.00 1.17 1.17 99 1007.0
20260510014014 7 178 0.0 0.0 0.00 1.17 1.17 99 1006.9
20260510013508 7 198 0.0 0.0 0.00 1.17 1.17 99 1007.1
20260510013004 7 181 0.0 1.6 0.00 1.17 1.17 99 1007.0
20260510012458 7 198 0.0 1.6 0.00 1.17 1.17 99 1006.9
20260510011954 7 214 0.0 0.0 0.00 1.17 1.17 99 1006.9
20260510011449 7 201 0.0 1.6 0.00 1.17 1.17 99 1007.0
20260510010945 7 188 0.0 0.0 0.00 1.17 1.17 99 1006.8
20260510010443 8 195 0.0 3.2 0.00 1.17 1.17 99 1006.8
20260510005939 8 219 0.0 0.0 0.00 1.17 1.17 99 1006.8
20260510005435 8 216 0.0 0.0 0.00 1.17 1.17 99 1006.4
20260510004933 8 202 0.0 0.0 0.00 1.17 1.17 99 1006.3
20260510004430 8 215 0.0 1.6 0.00 1.17 1.17 99 1006.4
20260510003928 8 209 0.0 0.0 0.00 1.17 1.17 99 1006.4
20260510003425 8 175 0.0 0.0 0.00 1.17 1.17 99 1006.5
20260510002924 8 199 0.0 3.2 0.00 1.17 1.17 99 1006.5
20260510002421 8 337 3.2 3.2 0.00 1.17 1.17 99 1006.6
20260510001918 8 195 0.0 1.6 0.00 1.17 1.17 99 1006.6
20260510001415 9 220 0.0 1.6 0.00 1.17 1.17 99 1006.4
20260510000912 9 207 0.0 3.2 0.00 1.17 1.17 99 1006.3
20260510000411 9 118 0.0 3.2 0.00 1.17 1.17 99 1006.2
20260509235905 9 133 1.6 3.2 0.00 1.17 1.17 99 1006.1
20260509235402 9 199 0.0 0.0 0.00 1.17 1.17 99 1006.0
20260509234858 9 198 0.0 0.0 0.00 1.17 1.17 99 1006.1
20260509234355 9 205 0.0 0.0 0.00 1.17 1.17 99 1005.7
20260509233853 10 169 1.6 3.2 0.00 1.17 1.17 99 1005.5
20260509233351 10 222 0.0 0.0 0.00 1.17 1.17 99 1005.5
20260509232846 10 166 0.0 1.6 0.00 1.17 1.17 99 1005.6
20260509232345 10 188 0.0 1.6 0.00 1.17 1.17 99 1005.8
20260509231840 10 152 0.0 1.6 0.00 1.17 1.17 99 1005.8
20260509231337 9 218 0.0 1.6 0.00 1.17 1.17 99 1005.5
20260509230835 9 200 0.0 3.2 0.00 1.17 1.17 99 1005.8
20260509230332 9 158 3.2 3.2 0.00 1.17 1.17 99 1005.6
20260509225827 9 209 0.0 0.0 0.00 1.17 1.17 99 1005.6
20260509225324 9 202 0.0 0.0 0.00 1.17 1.17 99 1005.5
20260509224820 9 239 0.0 3.2 0.00 1.17 1.17 99 1005.5
20260509224316 9 226 1.6 3.2 0.00 1.17 1.17 99 1005.3
20260509223813 9 201 1.6 3.2 0.00 1.17 1.17 99 1005.5
20260509223310 9 208 1.6 4.8 0.00 1.17 1.17 99 1005.4
20260509222807 9 345 0.0 1.6 0.00 1.17 1.17 99 1005.1
20260509222306 9 231 0.0 3.2 0.00 1.17 1.17 99 1005.5
20260509221758 9 143 1.6 4.8 0.00 1.17 1.17 99 1005.7
20260509221255 9 113 0.0 4.8 0.00 1.17 1.17 99 1005.4
20260509220750 10 242 1.6 3.2 0.00 1.17 1.17 98 1005.6
20260509220247 10 102 0.0 3.2 0.00 1.17 1.17 98 1005.5
20260509215742 10 217 0.0 9.7 0.00 1.17 1.17 98 1005.8
20260509215239 10 180 1.6 3.2 0.00 1.17 1.17 98 1005.8
20260509214736 10 137 3.2 3.2 0.00 1.17 1.17 98 1005.8
20260509214234 10 154 0.0 4.8 0.00 1.17 1.17 98 1005.8
20260509213731 10 192 0.0 3.2 0.00 1.17 1.17 99 1005.9
20260509213226 10 232 0.0 3.2 0.00 1.17 1.17 98 1005.9
20260509212724 10 163 1.6 1.6 0.00 1.17 1.17 98 1006.1
20260509212220 10 18 0.0 4.8 0.00 1.17 1.17 98 1005.9
20260509211716 10 263 3.2 9.7 0.00 1.17 1.17 98 1005.9
20260509211213 10 55 1.6 9.7 0.00 1.17 1.17 98 1006.1
20260509210709 10 232 0.0 4.8 0.00 1.17 1.17 98 1005.8
20260509210208 10 92 3.2 4.8 0.00 1.17 1.17 98 1006.0
20260509205707 10 339 1.6 6.4 0.00 1.17 1.17 98 1005.8
20260509205206 10 249 1.6 3.2 0.00 1.17 1.17 98 1006.1
20260509204703 10 161 1.6 3.2 0.00 1.17 1.17 98 1006.0
20260509204159 9 292 3.2 4.8 0.00 1.17 1.17 98 1006.0
20260509203655 9 161 3.2 6.4 0.00 1.17 1.17 98 1006.1
20260509203154 9 25 0.0 9.7 0.00 1.17 1.17 98 1006.1
20260509202649 9 230 3.2 4.8 0.18 1.17 1.17 98 1006.1
20260509202144 9 202 4.8 9.7 0.18 1.17 1.17 99 1006.3
20260509201640 9 66 1.6 4.8 0.00 1.14 1.14 99 1006.1
20260509201137 9 102 3.2 4.8 0.00 1.14 1.14 99 1006.4
20260509200632 8 221 3.2 4.8 0.13 1.14 1.14 99 1006.1
20260509200123 8 305 1.6 11.3 0.13 1.14 1.14 99 1006.2
20260509195619 8 167 3.2 3.2 0.00 1.12 1.12 99 1006.3
20260509195114 8 227 0.0 3.2 0.00 1.12 1.12 99 1006.4
20260509194613 9 296 0.0 1.6 0.00 1.12 1.12 99 1006.6
20260509194111 8 205 0.0 3.2 0.00 1.12 1.12 99 1006.5
20260509193606 8 135 4.8 6.4 0.00 1.12 1.12 99 1006.6
20260509193057 8 92 3.2 9.7 0.00 1.12 1.12 99 1006.6
20260509192554 8 165 1.6 4.8 0.00 1.12 1.12 99 1006.6
20260509192048 8 160 1.6 4.8 0.18 1.12 1.12 99 1006.6
20260509191543 8 223 4.8 9.7 0.18 1.12 1.12 99 1006.9
20260509191039 8 206 6.4 11.3 0.00 1.09 1.09 99 1006.6
20260509190536 8 216 0.0 3.2 0.00 1.09 1.09 99 1006.9
20260509190034 8 328 3.2 4.8 0.13 1.09 1.09 99 1007.0
20260509185531 8 78 6.4 6.4 0.13 1.09 1.09 99 1006.9
20260509185027 8 125 1.6 6.4 0.00 1.07 1.07 99 1006.8
20260509184526 8 90 1.6 4.8 0.18 1.07 1.07 99 1006.8
20260509184022 8 86 0.0 9.7 0.18 1.07 1.07 99 1006.8
20260509183517 8 263 0.0 3.2 0.00 1.04 1.04 99 1006.8
20260509183013 8 147 0.0 3.2 0.13 1.04 1.04 99 1006.8
20260509182510 8 191 0.0 4.8 0.13 1.04 1.04 99 1006.6
20260509182007 8 277 0.0 4.8 0.00 1.02 1.02 99 1006.8
20260509181505 8 121 0.0 3.2 0.18 1.02 1.02 99 1006.5
20260509181003 8 336 3.2 6.4 0.18 1.02 1.02 99 1006.8
20260509180457 8 63 3.2 9.7 0.00 0.99 0.99 99 1006.6
20260509175955 8 37 1.6 6.4 0.00 0.99 0.99 99 1006.6
20260509175451 8 63 1.6 12.9 0.13 0.99 0.99 99 1006.5
20260509174947 8 214 0.0 4.8 0.13 0.99 0.99 99 1006.5
20260509174443 8 280 0.0 4.8 0.18 0.97 0.97 99 1006.5
20260509173938 8 209 0.0 6.4 0.18 0.97 0.97 99 1006.6
20260509173433 8 149 1.6 4.8 0.18 0.94 0.94 99 1006.5
20260509172930 8 192 1.6 6.4 0.18 0.94 0.94 99 1006.5
20260509172427 8 152 1.6 4.8 0.13 0.91 0.91 99 1006.4
20260509171923 8 241 1.6 3.2 0.13 0.91 0.91 99 1006.5
20260509171419 8 145 3.2 6.4 0.18 0.89 0.89 99 1006.9
20260509170915 8 80 1.6 3.2 0.30 0.89 0.89 99 1006.5
20260509170411 8 155 3.2 9.7 0.13 0.86 0.86 99 1006.8
20260509165907 8 227 0.0 4.8 0.18 0.84 0.84 99 1006.6
20260509165401 8 224 0.0 0.0 0.18 0.84 0.84 99 1006.6
20260509164857 8 202 0.0 1.6 0.00 0.81 0.81 99 1006.8
20260509164353 8 174 0.0 1.6 0.13 0.81 0.81 99 1006.6
20260509163849 8 205 0.0 1.6 0.13 0.81 0.81 99 1006.8
20260509163346 8 209 0.0 1.6 0.00 0.79 0.79 99 1006.9
20260509162845 8 43 0.0 1.6 0.18 0.79 0.79 99 1006.9
20260509162344 8 211 1.6 4.8 0.18 0.79 0.79 99 1007.1
20260509161840 8 231 0.0 0.0 0.13 0.76 0.76 99 1007.0
20260509161336 8 315 3.2 3.2 0.13 0.76 0.76 99 1006.9
20260509160833 8 207 1.6 3.2 0.18 0.74 0.74 99 1007.0
20260509160329 8 213 1.6 3.2 0.18 0.74 0.74 99 1007.3
20260509155824 8 193 1.6 1.6 0.13 0.71 0.71 99 1007.1
20260509155321 8 165 1.6 9.7 0.13 0.71 0.71 99 1007.4
20260509154817 8 167 1.6 3.2 0.18 0.69 0.69 99 1007.2
20260509154314 8 197 0.0 0.0 0.18 0.69 0.69 99 1007.4
20260509153811 8 159 1.6 3.2 0.30 0.66 0.66 99 1007.5
20260509153307 8 179 0.0 0.0 0.18 0.64 0.64 99 1007.7
20260509152804 8 217 0.0 0.0 0.18 0.61 0.61 99 1007.7
20260509152300 8 176 3.2 3.2 0.30 0.61 0.61 99 1007.7
20260509151757 7 131 1.6 3.2 0.30 0.58 0.58 99 1007.5
20260509151253 7 148 4.8 6.4 0.30 0.56 0.56 99 1007.7
20260509150752 7 207 0.0 0.0 0.13 0.53 0.53 99 1007.9
20260509150250 7 233 0.0 0.0 0.30 0.53 0.53 99 1007.9
20260509145747 7 233 0.0 1.6 0.30 0.51 0.51 99 1007.9
20260509145246 7 108 0.0 0.0 0.30 0.48 0.48 99 1008.0
20260509144743 7 227 0.0 0.0 0.48 0.46 0.46 99 1008.0
20260509144240 7 104 4.8 4.8 0.18 0.41 0.41 99 1007.9
20260509143737 7 185 1.6 3.2 0.13 0.38 0.38 99 1008.0
20260509143234 7 106 3.2 4.8 0.18 0.36 0.36 99 1008.0
20260509142730 7 224 0.0 6.4 0.30 0.36 0.36 99 1008.0
20260509142226 7 145 3.2 3.2 0.30 0.33 0.33 99 1008.0
20260509141722 7 83 0.0 1.6 0.18 0.30 0.30 99 1008.0
20260509141220 7 209 1.6 9.7 0.18 0.28 0.28 99 1007.8
20260509140716 7 241 0.0 3.2 0.30 0.28 0.28 99 1007.9
20260509140214 7 144 3.2 3.2 0.30 0.25 0.25 99 1007.8
20260509135711 7 192 0.0 1.6 0.18 0.23 0.23 99 1007.9
20260509135209 7 213 0.0 3.2 0.13 0.20 0.20 99 1007.9
20260509134705 7 259 0.0 3.2 0.30 0.20 0.20 99 1007.8
20260509134203 7 134 3.2 4.8 0.18 0.18 0.18 99 1007.9
20260509133700 7 229 0.0 3.2 0.13 0.15 0.15 99 1007.8
20260509133157 7 157 0.0 6.4 0.30 0.15 0.15 99 1007.9
20260509132655 7 141 3.2 6.4 0.18 0.13 0.13 99 1008.0
20260509132153 7 225 1.6 4.8 0.13 0.10 0.10 99 1007.8
20260509131649 7 8 1.6 3.2 0.13 0.10 0.10 99 1007.8
20260509131146 7 334 0.0 1.6 0.00 0.08 0.08 99 1008.0
20260509130641 7 104 1.6 3.2 0.18 0.08 0.08 99 1007.9
20260509130138 7 204 0.0 1.6 0.18 0.08 0.08 99 1007.7
20260509125635 7 194 1.6 3.2 0.00 0.05 0.05 99 1007.9
20260509125132 7 216 0.0 0.0 0.13 0.05 0.05 99 1007.7
20260509124628 7 229 0.0 0.0 0.13 0.05 0.05 99 1007.8
20260509124125 7 206 0.0 0.0 0.00 0.03 0.03 99 1007.8
20260509123623 7 216 0.0 0.0 0.00 0.03 0.03 99 1007.8
20260509123120 7 118 0.0 0.0 0.00 0.03 0.03 99 1007.7
20260509122615 7 179 0.0 0.0 0.00 0.03 0.03 99 1007.9
20260509122113 7 166 0.0 0.0 0.00 0.03 0.03 99 1008.0
20260509121609 7 186 0.0 1.6 0.00 0.03 0.03 99 1007.8
20260509121107 7 203 0.0 0.0 0.00 0.03 0.03 99 1008.0
20260509120605 7 216 0.0 0.0 0.00 0.03 0.03 99 1007.9
20260509115600 7 53 0.0 1.6 0.00 0.03 0.03 99 1008.0
20260509115058 7 168 3.2 4.8 0.18 0.03 0.03 99 1007.9
20260509114556 7 216 0.0 1.6 0.18 0.03 0.03 99 1008.1
20260509114054 7 220 0.0 0.0 0.00 0.00 0.00 99 1008.0
20260509113552 7 213 0.0 0.0 0.00 0.00 0.00 99 1008.2
20260509113050 6 189 0.0 1.6 0.00 0.00 0.00 99 1008.0
20260509112546 6 203 0.0 1.6 0.00 0.00 0.00 99 1008.3
20260509112043 6 200 0.0 0.0 0.00 0.00 0.00 99 1008.2
20260509111540 6 181 0.0 0.0 0.00 0.00 0.00 99 1008.3
20260509111037 6 202 0.0 0.0 0.00 0.00 0.00 99 1008.0
20260509110533 6 202 0.0 0.0 0.00 0.00 0.00 99 1008.3
20260509110031 6 177 0.0 1.6 0.00 1.07 1.07 99 1008.1
20260509105529 6 193 1.6 3.2 0.00 1.07 1.07 99 1008.1
20260509105026 6 174 1.6 3.2 0.18 1.07 1.07 99 1007.9
20260509104523 6 180 1.6 1.6 0.18 1.07 1.07 99 1008.0
20260509104020 6 208 0.0 1.6 0.00 1.04 1.04 99 1007.9
20260509103518 6 159 0.0 0.0 0.00 1.04 1.04 99 1007.8
20260509103016 6 186 1.6 3.2 0.13 1.04 1.04 99 1008.0
20260509102513 6 133 3.2 3.2 0.13 1.04 1.04 99 1008.1
20260509102009 6 205 0.0 1.6 0.18 1.02 1.02 99 1008.0
20260509101506 6 129 1.6 3.2 0.18 1.02 1.02 99 1008.2
20260509101003 6 218 0.0 3.2 0.00 0.99 0.99 99 1008.3
20260509100500 6 97 1.6 3.2 0.13 0.99 0.99 99 1008.2
20260509095957 6 174 1.6 3.2 0.18 0.97 0.97 99 1008.1
20260509095453 6 208 0.0 1.6 0.18 0.97 0.97 99 1008.1
20260509094950 6 198 0.0 3.2 0.13 0.94 0.94 99 1008.3
20260509094447 6 190 0.0 3.2 0.30 0.94 0.94 99 1008.2
20260509093944 6 201 0.0 0.0 0.30 0.91 0.91 99 1008.0
20260509093442 6 214 0.0 0.0 0.30 0.89 0.89 99 1008.2
20260509092939 6 189 0.0 1.6 0.48 0.86 0.86 99 1008.1
20260509092437 6 208 0.0 1.6 0.30 0.84 0.84 99 1008.2
20260509091936 6 219 0.0 0.0 0.13 0.79 0.79 99 1008.1
20260509091432 6 202 0.0 0.0 0.13 0.79 0.79 99 1008.2
20260509090929 6 187 0.0 0.0 0.00 0.76 0.76 99 1008.1
20260509090426 6 194 0.0 0.0 0.36 0.76 0.76 99 1007.9
20260509085924 6 209 0.0 0.0 0.30 0.74 0.74 99 1008.0
20260509085421 6 201 0.0 1.6 0.30 0.71 0.71 99 1008.2
20260509084917 6 201 0.0 0.0 0.30 0.69 0.69 99 1008.2
20260509084414 6 242 0.0 0.0 0.13 0.66 0.66 99 1008.0
20260509083912 6 217 0.0 0.0 0.18 0.64 0.64 99 1008.4
20260509083409 6 167 0.0 0.0 0.30 0.64 0.64 99 1008.6
20260509082905 6 203 0.0 0.0 0.13 0.61 0.61 99 1008.6
20260509082402 6 236 0.0 1.6 0.18 0.58 0.58 99 1008.6
20260509081859 6 88 1.6 3.2 0.30 0.58 0.58 99 1008.7
20260509081356 6 138 0.0 1.6 0.30 0.56 0.56 99 1008.6
20260509080854 6 207 0.0 3.2 0.30 0.53 0.53 99 1008.6
20260509080352 6 201 0.0 3.2 0.30 0.51 0.51 99 1008.6
20260509075850 6 199 0.0 0.0 0.30 0.48 0.48 99 1008.3
20260509075346 6 200 0.0 3.2 0.30 0.46 0.46 99 1008.7
20260509074844 6 127 3.2 3.2 0.36 0.43 0.43 99 1008.6
20260509074341 6 221 0.0 0.0 0.18 0.41 0.41 99 1008.8
20260509073837 6 206 1.6 6.4 0.13 0.38 0.38 99 1008.8
20260509073334 6 207 0.0 0.0 0.30 0.38 0.38 99 1008.9
20260509072831 6 228 0.0 0.0 0.18 0.36 0.36 99 1009.0
20260509072327 6 217 0.0 0.0 0.13 0.33 0.33 99 1008.7
20260509071824 6 209 1.6 3.2 0.30 0.33 0.33 99 1008.8
20260509071321 6 223 0.0 0.0 0.30 0.30 0.30 99 1008.9
20260509070818 6 199 0.0 1.6 0.13 0.28 0.28 99 1009.1
20260509070315 6 184 0.0 1.6 0.18 0.25 0.25 99 1009.1
20260509065811 6 193 0.0 1.6 0.30 0.25 0.25 99 1009.0
20260509065307 6 196 0.0 0.0 0.18 0.20 0.20 99 1009.1
20260509064803 6 199 0.0 0.0 0.13 0.18 0.18 99 1009.1
20260509064301 6 195 0.0 0.0 0.30 0.18 0.18 99 1008.9
20260509063758 6 206 0.0 0.0 0.30 0.15 0.15 99 1009.1
20260509063254 6 215 0.0 0.0 0.13 0.13 0.13 99 1008.8
20260509062752 6 215 0.0 0.0 0.18 0.10 0.10 99 1008.7
20260509062249 6 215 0.0 0.0 0.18 0.10 0.10 99 1008.9
20260509061746 6 214 0.0 0.0 0.18 0.08 0.08 99 1009.0
20260509061244 6 213 0.0 0.0 0.18 0.08 0.08 99 1008.9
20260509060741 6 213 0.0 0.0 0.13 0.05 0.05 98 1008.9
20260509060237 6 213 0.0 0.0 0.13 0.05 0.05 98 1009.1
20260509055733 6 202 0.0 0.0 0.18 0.03 0.03 97 1009.0
20260509055229 6 201 0.0 0.0 0.18 0.03 0.03 97 1009.1
20260509054726 6 201 0.0 0.0 0.00 0.00 0.00 96 1009.2
20260509054223 6 200 0.0 0.0 0.00 0.00 0.00 96 1009.0
20260509053721 6 202 0.0 0.0 0.00 0.00 0.00 95 1009.2
20260509053218 6 202 0.0 0.0 0.00 0.00 0.00 95 1009.2
20260509052716 6 202 0.0 0.0 0.00 0.00 0.00 95 1009.3
20260509052213 6 202 0.0 0.0 0.00 0.00 0.00 95 1009.2
20260509051711 6 201 0.0 0.0 0.00 0.00 0.00 95 1008.9
20260509051208 6 200 0.0 0.0 0.00 0.00 0.00 94 1009.1
20260509050705 6 205 0.0 0.0 0.00 0.00 0.00 94 1009.3
20260509050201 6 172 0.0 0.0 0.00 0.00 0.00 94 1009.2
20260509045659 6 203 0.0 0.0 0.00 0.00 0.00 93 1009.4
20260509045155 6 204 0.0 0.0 0.00 0.00 0.00 93 1009.4
20260509044653 6 201 0.0 0.0 0.00 0.00 0.00 92 1009.4
20260509044150 6 207 0.0 0.0 0.00 0.00 0.00 92 1009.4
20260509043646 6 191 0.0 0.0 0.00 0.00 0.00 92 1009.4
20260509043142 6 201 0.0 0.0 0.00 0.00 0.00 92 1009.4
20260509042639 6 207 0.0 0.0 0.00 0.00 0.00 92 1009.4
20260509042135 5 207 0.0 0.0 0.00 0.00 0.00 92 1009.6
20260509041632 6 193 1.6 3.2 0.00 0.00 0.00 92 1009.5
20260509041129 5 208 0.0 0.0 0.00 0.00 0.00 92 1009.7
20260509040628 5 208 0.0 0.0 0.00 0.00 0.00 92 1009.7
20260509040124 5 208 0.0 0.0 0.00 0.00 0.00 92 1009.4
20260509035621 5 207 0.0 0.0 0.00 0.00 0.00 92 1009.5
20260509035117 5 190 0.0 0.0 0.00 0.00 0.00 92 1009.3
20260509034616 5 220 0.0 0.0 0.00 0.00 0.00 92 1009.3